CZ-6A DEB, 61350

Orbit data source: Space-Track

CZ-6A DEB, 61350 is space debris in LEO originally from a launch on Tue, 06 Aug 2024 UTC launched from the Taiyaun Space Center, China (TSC). Debris objects in space refer to the collection of defunct objects orbiting the Earth. Examples of debris include non-operational satellites, rocket bodies, and fragments generated from explosions, collisions, or faulty payload assembly.

Loading next visibility...
Identifier
61350, 2024-140VP
Orbit
LEO
Country
Flag of CNCN / PRC
Related business
Manufacturer
SAST
Mission
Spacecraft
Bus & Motor
Unknown
Mass
Unknown
Launch date (UTC)
2024-08-06 (2 years ago)
Launch vehicle
Unknown
Launch site
Taiyaun Space Center, China (TSC)
Object type
Payload
Rocket body
Debris
Shape & HBR
Unknown shape, 0.1 m
Radar Cross Section
Medium (>0.1 m² and <1 m²)

Expand to show TLE details & history
Last TLE update: 17 hours ago

TLE from 17 hours ago
0 CZ-6A DEB
1 61350U 24140VP  26171.26273206  .00002816  00000-0  10747-2 0  9999
2 61350  89.1186 283.0834 0078023 216.1661 143.4244 14.28899477 93374
Epoch: 2026-06-20T06:18Z
TLE epoch observation values (Epoch: 2026-06-20T06:18:20.049Z)
Latitude
-0.00008°
Longitude
-79.98001°
Altitude
843.589 km
Speed
7.407 km/s
True Right ascension
18h 52m 20s
True Declination
0° 00' 00"
Sunlit
Object was in full shadow at epoch
Visualization orbit readout
Latitude
Unknown
Longitude
Unknown
Altitude
Unknown
Speed
Unknown
Apparent Right ascension
Unknown
Apparent Declination
Unknown
Sunlit
N/A
Visualization observer readout
Local Sidereal Time
10:17:08
Azimuth
Unknown
Elevation
Unknown
Doppler factor
Unknown
Orbital elements
Apogee altitude
848.296 km
Perigee altitude
736.403 km
Semi-major axis
7,170.486 km
Eccentricity
0.0078
Inclination
89.1186°
RAAN
283.0834°
Arg. of periapsis
216.1661°
True anomaly
143.95302°
Mean anomaly
143.4244°
Eccentric anomaly
143.68912°
Mean motion
3.57454 °/min
Orbital period
100.71 mins
BSTAR
0.0010747
Loading maneuver chart data...
Computing Atmospheric mass density...
Loading historical data...
Loading historical data...
Loading historical data...
Loading historical data...
Loading historical data...
Loading historical data...
Loading historical data...

Documentation

Showing up to 5 results
|